Regional Weather Roundup
Issued by NWS

Home | Current Version | Previous Version | Text Only | Print | Product List | Glossary On
Versions: 1 2 3 4 5 6 7 8 9 10 11 12 13 14 15 16 17 18 19 20 21 22 23 24 25 26 27 28 29 30 31 32 33 34 35 36 37 38 39 40 41 42 43 44 45 46 47 48 49 50
000
ASUS45 KTFX 292104
RWRMT
MONTANA HOURLY WEATHER ROUNDUP
NATIONAL WEATHER SERVICE GREAT FALLS MT
304 PM MDT TUE JUL 29 2014

NOTE: "FAIR" INDICATES FEW OR NO CLOUDS BELOW 12000 FEET WITH NO
SIGNIFICANT WEATHER AND/OR OBSTRUCTIONS TO VISIBILITY.

* THESE STATIONS ARE NOT UNDER NWS QUALITY CONTROL. THEY DO NOT
   REPORT WEATHER SUCH AS PRECIPITATION OR FOG.

MTZ001>007-043-292200-
WEST OF THE DIVIDE
CITY           SKY/WX    TMP DP  RH WIND       PRES   REMARKS
KALISPELL      SUNNY     91  48  23 CALM      30.10F
MISSOULA       PTCLDY    95  34  12 N14G21    30.11F
BUTTE          LGT RAIN  75  46  36 NE20G35   30.28S
MULLAN PASS    PTCLDY    79  37  22 CALM      30.33F
* LINCOLN      N/A       85  43  23 NE7G13     N/A
* LOOKOUT PASS N/A       85  42  22 VRB2G7     N/A
* POLSON       N/A       93  50  23 NW3        N/A
* RONAN APT    SUNNY     88  48  25 N/A        N/A
* SEELEY LAKE  N/A       91  33  13 W6G12      N/A
* THOMP F APT  SUNNY     77  42  29 E6G15      N/A
* YAAK HILL    N/A       98  46  17 SW2        N/A
$$

MTZ008-052>055-292200-
SOUTHWEST MONTANA
CITY           SKY/WX    TMP DP  RH WIND       PRES   REMARKS
BOZEMAN        PTCLDY    90  46  22 N/A       30.19F
DILLON         PTSUNNY   82  52  35 NW8       30.21F
W YELLOWSTONE  CLOUDY    73  46  38 CALM      30.34F
* THREE FORKS  PTCLDY    88  54  31 E5         N/A
* BOULDER HILL N/A       79  46  31 N8G14      N/A
* MONIDA PASS  N/A       75  40  28 E11G16     N/A
* RAYNOLDS PAS N/A       72  54  53 S6G13      N/A
* WHITEHALL    N/A       89  45  22 SE7G14     N/A
* WISE RIVER   N/A       81  35  19 E10G18     N/A
$$

MTZ009>010-012-014-046-048-049-054-292200-
EAST SLOPES AND CENTRAL MONTANA
CITY           SKY/WX    TMP DP  RH WIND       PRES   REMARKS
CUT BANK       SUNNY     90  45  21 VRB5      30.20S
GREAT FALLS    SUNNY     91  43  19 NE8       30.17F
HELENA         PTCLDY    90  45  21 CALM      30.15F
MALMSTROM AFB  SUNNY     90  41  18 VRB5      30.16F
* CONRAD       SUNNY     88  54  31 NE5        N/A
* DEARBORN     N/A       88  46  23 VRB11G20    N/A
* EAST GLACIER N/A       81  46  29 SE5G12     N/A
* MONARCH      N/A       82  44  26 NE16G21    N/A
* ROGERS PASS  N/A       79  42  27 SW1G6      N/A
* SAINT MARY   N/A       89  43  20 E6G16      N/A
* SWEET GRASS  N/A       90  41  18 S8G14      N/A
$$

MTZ011-013-016-021-035-040-045-047-050-051-292200-
NORTH CENTRAL MONTANA
CITY           SKY/WX    TMP DP  RH WIND       PRES   REMARKS
HAVRE          SUNNY     93  45  19 NE9       30.13S
LEWISTOWN      SUNNY     88  43  21 SE10G22   30.22F
* CHESTER      N/A       88  41  19 SE6G16     N/A
* DENTON       N/A       91  50  25 SE6G13     N/A
* GEYSER       N/A       87  49  27 NE10G18    N/A
* JUDITH GAP   N/A       83  51  33 S2G11      N/A
* LOMA         N/A       92  43  18 NE11G22    N/A
$$

MTZ017>020-022>027-061-062-292200-
NORTHEAST MONTANA
CITY           SKY/WX    TMP DP  RH WIND       PRES   REMARKS
GLASGOW        SUNNY     91  43  19 NE15      30.16F
GLENDIVE       SUNNY     86  43  22 N12G21    30.18F
JORDAN         SUNNY     91  39  16 E9        30.17S
SIDNEY         SUNNY     84  52  33 NE9       30.17F
WOLF POINT     SUNNY     91  45  20 NE10G18   30.16F
* BEAVER HILL  N/A       84  49  30 NW16       N/A
* CIRCLE       N/A       87  48  26 E2G9       N/A
* LINDSAY DVD  N/A       84  42  23 NW11G19    N/A
$$

MTZ028>042-056>058-292200-
SOUTHCENTRAL AND SOUTHEAST MONTANA
CITY           SKY/WX    TMP DP  RH WIND       PRES   REMARKS
BAKER          PTCLDY    88  48  25 VRB7      30.21F
BILLINGS       PTCLDY    88  46  23 E12G20    30.18S
LIVINGSTON     PTCLDY    90  45  21 NE21G26   30.22S
MILES CITY     SUNNY     88  41  19 E6        30.17F
* LAUREL APT   PTCLDY    88  50  27 N/A        N/A
* ROUNDUP APT  SUNNY     88  43  21 SE6        N/A
* ALZADA       N/A       81  46  29 N6G11      N/A
* HYSHAM       N/A       86  45  24 S7G14      N/A
* LAME DEER    N/A       82  49  32 S1G8       N/A
* REED POINT   N/A       88  51  28 E12G17     N/A
* ROSCOE HILL  N/A       80  45  29 NE12       N/A
$$

REGIONAL REPORTS...DAKOTAS
CITY           SKY/WX    TMP DP  RH WIND       PRES   REMARKS
WILLISTON      SUNNY     84  48  29 N12       30.17S
DICKINSON      SUNNY     82  52  35 NW7       30.16F
CROSBY         SUNNY     77  59  54 NW5       30.19S
TIOGA          PTCLDY    77  57  50 NE7       30.21S
WATFORD CITY   SUNNY     82  50  33 N10G17    30.15S
BISMARCK       PTCLDY    79  54  42 N6        30.17F
GRAND FORKS    SUNNY     79  54  42 NE3       30.12F
FARGO          PTSUNNY   81  54  39 N12       30.13S
BUFFALO SD     PTCLDY    84  52  33 SE12      30.15F
RAPID CITY     CLOUDY    72  57  59 SE9       30.24F
$$

REGIONAL REPORTS...WYOMING/IDAHO/WASHINGTON
CITY           SKY/WX    TMP DP  RH WIND       PRES   REMARKS
GILLETTE       CLOUDY    68  59  73 SW10      30.28F
SHERIDAN       CLOUDY    82  43  25 SE10G20   30.23S
YELLOWSTONE LA CLOUDY    64  48  56 VRB3      30.46F
SALMON         PTSUNNY   91  45  20 NW5       30.07S
MULLAN PASS    PTCLDY    79  37  22 CALM      30.33S
SAND POINT     SUNNY     90  55  31 SE5       30.06F
SPOKANE        SUNNY     97  39  13 VRB7      30.06F

$$



USA.gov is the U.S. government's official web portal to all federal, state and local government web resources and services.